Weather History for KVTI - February, 2013

Change the Weather History Date:

Sunday, February 10, 2013

  Actual Average Record
Temperature  
Mean Temperature 36 °F -  
Max Temperature 43 °F 29 °F 59 °F (2009)
Min Temperature 30 °F 12 °F -18 °F (1982)
Degree Days  
Heating Degree Days 28    
Moisture  
Dew Point 32 °F    
Average Humidity 87    
Maximum Humidity 94    
Minimum Humidity 69    
Precipitation  
Precipitation 0.07 in - - ()
Sea Level Pressure  
Sea Level Pressure 29.54 in    
Wind  
Wind Speed 14 mph (South)    
Max Wind Speed 30 mph    
Max Gust Speed 40 mph    
Visibility 6 miles    
Events Rain , Snow    
Averages and records for this station are not official NWS values.
T = Trace of Precipitation, MM = Missing Value Source: NWS Daily Summary

Daily Weather History Graph

Daily Weather History Graph

Search for Another Location

Airport or City:

Trip Planner

Search our weather history database for the weather conditions in past years. The results will help you decide how hot, cold, wet, or windy it might be!

Date:

Astronomy

Feb. 10, 2013 Rise Set
Actual Time 7:10 AM CST 5:34 PM CST
Civil Twilight 6:41 AM CST 6:03 PM CST
Nautical Twilight 6:08 AM CST 6:36 PM CST
Astronomical Twilight 5:36 AM CST 7:09 PM CST
Moon 6:59 AM CST (2/10) 6:27 PM CST (2/10)
Length of Visible Light 11h 22m
Length of Day
10h 24m
New Moon, 0% of the Moon is Illuminated
Feb 10
New Moon
Feb 17
First Quarter
Feb 25
Full
Mar 4
Last Quarter
Mar 11
New

Hourly Weather History & Observations

Time (CST) Temp. Windchill Dew Point Humidity Pressure Visibility Wind Dir Wind Speed Gust Speed Precip Events Conditions
12:15 AM 30.2 °F 19.8 °F 25.7 °F 83% 29.95 in 7.0 mi SSE 13.8 mph 18.4 mph N/A   Clear
12:35 AM 30.9 °F 22.2 °F 26.4 °F 83% 29.93 in 7.0 mi SE 10.4 mph - N/A   Scattered Clouds
12:55 AM 32.4 °F 23.0 °F 28.4 °F 85% 29.92 in 5.0 mi SE 12.7 mph - N/A Snow Light Snow
1:15 AM 32.4 °F 23.5 °F 28.4 °F 85% 29.92 in 7.0 mi SSE 11.5 mph 18.4 mph N/A   Scattered Clouds
1:35 AM 32.4 °F 24.0 °F 28.8 °F 87% 29.90 in 7.0 mi SE 10.4 mph 18.4 mph N/A   Scattered Clouds
1:55 AM 32.4 °F 24.6 °F 29.1 °F 88% 29.90 in 5.0 mi SSE 9.2 mph - N/A   Mostly Cloudy
2:15 AM 32.4 °F 23.5 °F 29.3 °F 88% 29.88 in 4.0 mi SE 11.5 mph - N/A   Overcast
2:35 AM 32.4 °F 24.0 °F 29.3 °F 88% 29.87 in 5.0 mi SE 10.4 mph - N/A   Overcast
2:55 AM 32.4 °F 23.5 °F 29.8 °F 90% 29.86 in 4.0 mi SSE 11.5 mph - N/A   Overcast
3:15 AM 32.4 °F 23.5 °F 30.2 °F 92% 29.86 in 4.0 mi SSE 11.5 mph - N/A   Overcast
3:35 AM 32.4 °F 23.5 °F 30.2 °F 92% 29.84 in 4.0 mi SE 11.5 mph - N/A   Overcast
3:55 AM 32.4 °F 23.5 °F 30.2 °F 92% 29.82 in 4.0 mi SE 11.5 mph - N/A   Overcast
4:15 AM 32.4 °F 23.0 °F 30.2 °F 92% 29.81 in 4.0 mi SE 12.7 mph - N/A   Overcast
4:55 AM 32.4 °F 23.5 °F 30.6 °F 93% 29.79 in 4.0 mi SE 11.5 mph - N/A   Overcast
5:15 AM 32.4 °F 22.5 °F 30.6 °F 93% 29.75 in 3.0 mi SE 13.8 mph 20.7 mph N/A Rain Light Rain
5:35 AM 32.4 °F 22.1 °F 30.6 °F 93% 29.72 in 4.0 mi SE 15.0 mph 20.7 mph N/A   Overcast
5:55 AM 32.4 °F 21.7 °F 30.6 °F 93% 29.69 in 3.0 mi SE 16.1 mph 19.6 mph N/A   Overcast
6:15 AM 32.4 °F 22.1 °F 30.6 °F 93% 29.68 in 4.0 mi SE 15.0 mph 23.0 mph N/A   Overcast
6:35 AM 32.4 °F 21.7 °F 30.6 °F 93% 29.68 in 5.0 mi SE 16.1 mph 19.6 mph N/A   Overcast
6:55 AM 32.4 °F 21.7 °F 30.6 °F 93% 29.66 in 4.0 mi SE 16.1 mph 23.0 mph N/A   Overcast
7:15 AM 33.8 °F 23.2 °F 31.8 °F 92% 29.68 in 4.0 mi SSE 17.3 mph 26.5 mph N/A   Overcast
7:35 AM 33.8 °F 23.9 °F 31.6 °F 92% 29.67 in 2.5 mi SSE 15.0 mph 25.3 mph N/A   Drizzle
7:55 AM 33.4 °F 23.1 °F 32.0 °F 94% 29.65 in 2.0 mi SSE 16.1 mph 23.0 mph N/A Snow Light Snow
8:15 AM 33.8 °F 24.3 °F 32.0 °F 93% 29.61 in 2.0 mi ESE 13.8 mph - 0.02 in Snow Light Snow
8:35 AM 34.2 °F 24.8 °F 32.2 °F 92% 29.61 in 2.0 mi SE 13.8 mph - 0.05 in Rain Heavy Rain
8:55 AM 34.9 °F 24.6 °F 32.9 °F 92% 29.61 in 3.0 mi SE 17.3 mph 26.5 mph 0.07 in Snow Light Snow
9:15 AM 34.9 °F 24.6 °F 32.9 °F 92% 29.58 in 5.0 mi SE 17.3 mph 24.2 mph N/A Rain Rain
9:35 AM 34.9 °F 24.2 °F 32.5 °F 91% 29.55 in 4.0 mi SE 18.4 mph - N/A Rain Light Rain
9:55 AM 34.9 °F 23.9 °F 32.5 °F 91% 29.51 in 3.0 mi SE 19.6 mph 26.5 mph N/A Rain Light Rain
10:15 AM 34.9 °F 24.6 °F 32.5 °F 91% 29.50 in 10.0 mi SE 17.3 mph 20.7 mph N/A   Overcast
10:35 AM 34.9 °F 24.9 °F 32.5 °F 91% 29.50 in 10.0 mi SSE 16.1 mph - N/A   Overcast
10:55 AM 34.9 °F 25.3 °F 32.5 °F 91% 29.49 in 1.8 mi SSE 15.0 mph - N/A Rain Light Rain
11:15 AM 35.6 °F 25.9 °F 33.8 °F 93% 29.48 in 1.8 mi SSE 16.1 mph 21.9 mph N/A Rain Light Rain
11:35 AM 37.2 °F 29.1 °F 35.2 °F 93% 29.47 in 2.5 mi SSE 12.7 mph 21.9 mph N/A Rain Light Rain
11:55 AM 37.4 °F 28.5 °F 35.6 °F 93% 29.45 in 2.5 mi SSE 15.0 mph 21.9 mph N/A Rain Light Rain
12:15 PM 37.4 °F 28.9 °F 35.6 °F 93% 29.44 in 3.0 mi SSE 13.8 mph - N/A Rain Light Rain
12:35 PM 37.4 °F 28.9 °F 35.6 °F 93% 29.41 in 5.0 mi SSE 13.8 mph - N/A   Overcast
12:55 PM 37.4 °F 28.2 °F 35.6 °F 93% 29.40 in 5.0 mi SSE 16.1 mph 20.7 mph N/A   Overcast
1:15 PM 37.4 °F 29.8 °F 35.6 °F 93% 29.39 in 3.0 mi SSE 11.5 mph 18.4 mph N/A   Overcast
1:35 PM 38.3 °F 31.9 °F 36.5 °F 93% 29.38 in 3.0 mi SSE 9.2 mph 17.3 mph N/A   Overcast
1:55 PM 38.8 °F 31.2 °F 37.0 °F 93% 29.36 in 3.0 mi SSE 12.7 mph 18.4 mph N/A   Overcast
2:15 PM 40.1 °F 32.7 °F 38.3 °F 93% 29.35 in 3.0 mi SSE 12.7 mph - N/A   Overcast
2:35 PM 40.1 °F 32.4 °F 37.9 °F 92% 29.34 in 3.0 mi SSE 13.8 mph - N/A   Overcast
2:55 PM 40.1 °F 32.7 °F 37.9 °F 92% 29.32 in 2.5 mi SE 12.7 mph - N/A   Overcast
3:15 PM 40.6 °F 33.4 °F 38.8 °F 93% 29.31 in 3.0 mi SSE 12.7 mph - N/A   Overcast
3:35 PM 41.2 °F 34.1 °F 39.2 °F 93% 29.31 in 4.0 mi SSE 12.7 mph - N/A   Overcast
3:55 PM 42.3 °F 35.9 °F 40.3 °F 93% 29.30 in 5.0 mi SSE 11.5 mph - N/A   Overcast
4:15 PM 42.4 °F 36.1 °F 40.3 °F 92% 29.31 in 5.0 mi South 11.5 mph 17.3 mph N/A   Mostly Cloudy
4:35 PM 42.4 °F 35.3 °F 39.7 °F 90% 29.32 in 5.0 mi South 13.8 mph 19.6 mph N/A   Scattered Clouds
4:55 PM 43.3 °F 37.2 °F 36.5 °F 77% 29.34 in 10.0 mi WSW 11.5 mph 24.2 mph N/A   Mostly Cloudy
5:15 PM 41.2 °F 33.0 °F 32.0 °F 70% 29.34 in 10.0 mi WSW 16.1 mph 21.9 mph N/A   Mostly Cloudy
5:35 PM 40.3 °F 33.0 °F 30.7 °F 69% 29.34 in 10.0 mi WSW 12.7 mph 20.7 mph N/A   Scattered Clouds
5:55 PM 40.1 °F 33.2 °F 31.1 °F 70% 29.36 in 10.0 mi SW 11.5 mph - N/A   Mostly Cloudy
6:15 PM 38.7 °F 30.5 °F 31.1 °F 74% 29.37 in 10.0 mi SW 13.8 mph 24.2 mph N/A   Light Drizzle
6:35 PM 38.7 °F 28.0 °F 30.2 °F 72% 29.37 in 10.0 mi SW 23.0 mph 31.1 mph N/A   Mostly Cloudy
6:55 PM 37.4 °F 25.4 °F 30.2 °F 75% 29.38 in 10.0 mi SW 27.6 mph 35.7 mph N/A   Drizzle
7:15 PM 37.4 °F 26.4 °F 30.2 °F 75% 29.38 in 10.0 mi SW 23.0 mph 40.3 mph N/A   Mostly Cloudy
7:35 PM 37.4 °F 25.9 °F 31.1 °F 78% 29.39 in 10.0 mi SW 25.3 mph 33.4 mph N/A   Overcast
7:55 PM 35.4 °F 22.3 °F 30.2 °F 81% 29.39 in 10.0 mi SW 29.9 mph 35.7 mph N/A   Mostly Cloudy
8:15 PM 34.9 °F 24.2 °F 30.2 °F 83% 29.39 in 10.0 mi SW 18.4 mph 31.1 mph N/A   Mostly Cloudy
8:35 PM 34.9 °F 22.7 °F 30.2 °F 83% 29.39 in 10.0 mi SW 24.2 mph 31.1 mph N/A   Overcast
8:55 PM 34.9 °F 24.2 °F 30.6 °F 84% 29.40 in 10.0 mi SW 18.4 mph 29.9 mph N/A   Overcast
9:15 PM 34.9 °F 23.9 °F 30.9 °F 85% 29.40 in 7.0 mi SW 19.6 mph 26.5 mph N/A   Overcast
9:35 PM 34.9 °F 23.3 °F 30.9 °F 85% 29.41 in 10.0 mi SW 21.9 mph 31.1 mph N/A   Mostly Cloudy
9:55 PM 32.4 °F 19.7 °F 27.5 °F 82% 29.42 in 10.0 mi WSW 23.0 mph 32.2 mph N/A   Mostly Cloudy
10:15 PM 32.4 °F 20.3 °F 27.1 °F 81% 29.44 in 10.0 mi WSW 20.7 mph 29.9 mph N/A   Scattered Clouds
10:35 PM 32.4 °F 19.1 °F 26.6 °F 79% 29.44 in 10.0 mi WSW 25.3 mph 34.5 mph N/A   Mostly Cloudy
10:55 PM 32.4 °F 19.1 °F 26.2 °F 78% 29.45 in 10.0 mi WSW 25.3 mph 32.2 mph N/A   Overcast
11:15 PM 32.4 °F 20.3 °F 26.4 °F 79% 29.46 in 10.0 mi WSW 20.7 mph 33.4 mph N/A   Overcast
11:35 PM 32.4 °F 19.1 °F 25.7 °F 76% 29.47 in 10.0 mi WSW 25.3 mph 36.8 mph N/A   Overcast
11:55 PM 32.4 °F 20.3 °F 25.5 °F 76% 29.49 in 10.0 mi West 20.7 mph 32.2 mph N/A   Overcast